Midland, MI

10:16 AM EST on December 07, 2016 (GMT -0500)
Barstow

Weather History for KIKW - October, 2013

Change the Weather History Date:

Monday, October 28, 2013

  Actual Average (KMBS) Record (KMBS)
Temperature  
Mean Temperature 38 °F 46 °F  
Max Temperature 44 °F 54 °F 70 °F (2014)
Min Temperature 32 °F 37 °F 24 °F (1997)
Degree Days  
Heating Degree Days 27    
Month to date heating degree days  
Since 1 July heating degree days  
Cooling Degree Days 0    
Month to date cooling degree days  
Year to date cooling degree days  
Moisture  
Dew Point 32 °F    
Average Humidity 74    
Maximum Humidity 96    
Minimum Humidity 60    
Precipitation  
Precipitation 0.00 in 0.08 in 0.81 in (2015)
Month to date precipitation 2.37  
Year to date precipitation 26.72  
Snow  
Snow 0.00 in - - ()
Month to date snowfall  
Since 1 July snowfall  
Since 1 September snowfall  
Snow Depth -    
Sea Level Pressure  
Sea Level Pressure 30.27 in    
Wind  
Wind Speed 4 mph (NE)    
Max Wind Speed 15 mph    
Max Gust Speed 22 mph    
Visibility 10 miles    
Events      
T = Trace of Precipitation, MM = Missing Value Source: NWS Daily Summary

Daily Weather History Graph

Daily Weather History Graph

Search for Another Location

Airport or City:

Trip Planner

Search our weather history database for the weather conditions in past years. The results will help you decide how hot, cold, wet, or windy it might be!

Date:

Astronomy

Oct. 28, 2013 Rise Set
Actual Time 8:07 AM EDT 6:32 PM EDT
Civil Twilight 7:38 AM EDT 7:02 PM EDT
Nautical Twilight 7:04 AM EDT 7:36 PM EDT
Astronomical Twilight 6:31 AM EDT 8:09 PM EDT
Moon 1:49 AM EDT (10/28) 3:24 PM EDT (10/28)
Length of Visible Light 11h 24m
Length of Day
10h 25m
Waning Crescent, 34% of the Moon is Illuminated
Oct 28
Waning Crescent
Nov 3
New
Nov 10
First Quarter
Nov 17
Full
Nov 25
Last Quarter

Hourly Weather History & Observations

Time (EDT) Temp. Windchill Dew Point Humidity Pressure Visibility Wind Dir Wind Speed Gust Speed Precip Events Conditions
12:13 AM 38.7 °F 36.3 °F 33.3 °F 81% 29.99 in 10.0 mi South 3.5 mph - N/A   Clear
12:34 AM 39.0 °F - 33.3 °F 80% 30.00 in 10.0 mi Calm Calm - N/A   Scattered Clouds
12:54 AM 37.2 °F - 32.2 °F 82% 30.00 in 10.0 mi Calm Calm - N/A   Scattered Clouds
1:13 AM 35.4 °F - 32.2 °F 88% 30.01 in 10.0 mi Calm Calm - N/A   Clear
1:34 AM 35.8 °F - 32.7 °F 89% 30.02 in 10.0 mi Calm Calm - N/A   Clear
1:54 AM 34.7 °F - 32.5 °F 92% 30.02 in 10.0 mi Calm Calm - N/A   Clear
2:13 AM 34.2 °F - 32.4 °F 93% 30.03 in 10.0 mi Calm Calm - N/A   Mostly Cloudy
2:34 AM 34.3 °F - 32.5 °F 93% 30.04 in 10.0 mi Calm Calm - N/A   Mostly Cloudy
2:54 AM 33.8 °F - 32.4 °F 94% 30.04 in 10.0 mi Calm Calm - N/A   Scattered Clouds
3:13 AM 32.9 °F - 32.0 °F 96% 30.05 in 10.0 mi Calm Calm - N/A   Mostly Cloudy
3:34 AM 33.1 °F - 32.0 °F 96% 30.06 in 10.0 mi Calm Calm - N/A   Overcast
3:54 AM 34.7 °F - 33.6 °F 96% 30.07 in 10.0 mi Calm Calm - N/A   Overcast
4:13 AM 35.6 °F - 34.2 °F 94% 30.09 in 10.0 mi Calm Calm - N/A   Overcast
4:34 AM 34.9 °F - 33.8 °F 96% 30.10 in 10.0 mi Calm Calm - N/A   Overcast
4:54 AM 37.2 °F - 35.2 °F 93% 30.11 in 10.0 mi Calm Calm - N/A   Overcast
5:13 AM 39.4 °F - 35.8 °F 87% 30.11 in 10.0 mi Calm Calm - N/A   Overcast
5:34 AM 40.3 °F 36.3 °F 35.4 °F 83% 30.12 in 10.0 mi North 5.8 mph - N/A   Overcast
5:54 AM 41.4 °F 38.4 °F 35.1 °F 78% 30.14 in 10.0 mi North 4.6 mph - N/A   Overcast
6:13 AM 41.5 °F 38.6 °F 35.1 °F 78% 30.15 in 10.0 mi North 4.6 mph - N/A   Overcast
6:34 AM 41.4 °F - 34.9 °F 78% 30.16 in 10.0 mi Calm Calm - N/A   Overcast
6:54 AM 41.4 °F 38.4 °F 34.7 °F 77% 30.17 in 10.0 mi North 4.6 mph - N/A   Overcast
7:13 AM 41.0 °F 38.0 °F 34.7 °F 78% 30.18 in 10.0 mi North 4.6 mph - N/A   Overcast
7:34 AM 40.8 °F 38.8 °F 34.3 °F 78% 30.20 in 10.0 mi NNE 3.5 mph - N/A   Overcast
7:54 AM 40.1 °F 38.0 °F 34.0 °F 79% 30.21 in 10.0 mi NNE 3.5 mph - N/A   Mostly Cloudy
8:13 AM 38.8 °F - 33.4 °F 81% 30.22 in 10.0 mi Calm Calm - N/A   Scattered Clouds
8:24 AM 38.5 °F - 33.6 °F 83% 30.23 in 10.0 mi Calm Calm - N/A   Scattered Clouds
8:53 AM 38.7 °F - 32.5 °F 79% 30.25 in 10.0 mi Calm Calm - N/A   Clear
9:14 AM 39.6 °F 34.7 °F 32.5 °F 76% 30.27 in 10.0 mi NNE 6.9 mph - N/A   Clear
9:34 AM 40.8 °F 36.2 °F 32.4 °F 72% 30.29 in 10.0 mi NNE 6.9 mph - N/A   Clear
9:53 AM 40.8 °F 36.2 °F 32.2 °F 71% 30.29 in 10.0 mi NE 6.9 mph - N/A   Mostly Cloudy
10:14 AM 42.4 °F 36.5 °F 32.2 °F 67% 30.30 in 10.0 mi NE 10.4 mph 17.3 mph N/A   Overcast
10:33 AM 42.1 °F 35.7 °F 31.8 °F 67% 30.31 in 10.0 mi NE 11.5 mph 17.3 mph N/A   Overcast
10:54 AM 41.9 °F 35.0 °F 31.5 °F 66% 30.32 in 10.0 mi NE 12.7 mph 21.9 mph N/A   Overcast
11:13 AM 42.3 °F 37.3 °F 32.0 °F 67% 30.32 in 10.0 mi NE 8.1 mph 17.3 mph N/A   Overcast
11:34 AM 42.3 °F 35.1 °F 32.0 °F 67% 30.33 in 10.0 mi NNE 13.8 mph 18.4 mph N/A   Overcast
11:54 AM 43.0 °F 37.7 °F 32.0 °F 65% 30.34 in 10.0 mi NE 9.2 mph - N/A   Overcast
12:13 PM 44.1 °F 37.4 °F 32.0 °F 63% 30.35 in 10.0 mi NE 13.8 mph - N/A   Overcast
12:34 PM 43.2 °F 36.2 °F 33.4 °F 69% 30.36 in 10.0 mi NE 13.8 mph 20.7 mph N/A   Overcast
12:54 PM 43.7 °F 37.3 °F 33.1 °F 66% 30.36 in 10.0 mi NE 12.7 mph 17.3 mph N/A   Overcast
1:13 PM 43.9 °F 38.3 °F 32.5 °F 64% 30.36 in 10.0 mi NE 10.4 mph 17.3 mph N/A   Overcast
1:34 PM 43.5 °F 36.4 °F 32.0 °F 64% 30.36 in 10.0 mi ENE 15.0 mph 20.7 mph N/A   Overcast
1:54 PM 43.2 °F 37.9 °F 32.0 °F 65% 30.36 in 10.0 mi NE 9.2 mph - N/A   Overcast
2:13 PM 43.3 °F 37.7 °F 31.3 °F 62% 30.36 in 10.0 mi NE 10.4 mph 18.4 mph N/A   Overcast
2:34 PM 43.0 °F 37.7 °F 30.2 °F 61% 30.36 in 10.0 mi NE 9.2 mph 17.3 mph N/A   Overcast
2:54 PM 42.8 °F 36.2 °F 30.2 °F 61% 30.36 in 10.0 mi NE 12.7 mph 18.4 mph N/A   Overcast
3:13 PM 42.8 °F 36.6 °F 30.0 °F 61% 30.36 in 10.0 mi NE 11.5 mph - N/A   Overcast
3:34 PM 42.4 °F 35.3 °F 29.7 °F 61% 30.36 in 10.0 mi ENE 13.8 mph - N/A   Overcast
3:54 PM 42.3 °F 36.8 °F 29.3 °F 60% 30.37 in 10.0 mi NE 9.2 mph 16.1 mph N/A   Overcast
4:13 PM 42.3 °F 36.3 °F 30.7 °F 64% 30.36 in 10.0 mi ENE 10.4 mph 16.1 mph N/A   Overcast
4:34 PM 41.9 °F 36.3 °F 30.6 °F 64% 30.37 in 10.0 mi ENE 9.2 mph - N/A   Overcast
4:54 PM 41.4 °F 36.8 °F 30.4 °F 65% 30.37 in 10.0 mi ENE 6.9 mph - N/A   Overcast
5:13 PM 41.2 °F 34.5 °F 30.9 °F 67% 30.37 in 10.0 mi ENE 11.5 mph 16.1 mph N/A   Overcast
5:34 PM 41.0 °F 34.3 °F 30.7 °F 67% 30.37 in 10.0 mi ENE 11.5 mph - N/A   Overcast
5:54 PM 41.0 °F 35.2 °F 30.9 °F 67% 30.37 in 10.0 mi ENE 9.2 mph - N/A   Overcast
6:00 PM 41.0 °F 37.1 °F 30.7 °F 67% 30.37 in 10.0 mi ENE 5.8 mph - N/A   Overcast
6:34 PM 40.6 °F 35.4 °F 30.6 °F 67% 30.37 in 10.0 mi NE 8.1 mph - N/A   Overcast
6:54 PM 40.5 °F 35.8 °F 30.7 °F 68% 30.38 in 10.0 mi NE 6.9 mph - N/A   Overcast
7:14 PM 40.5 °F 36.5 °F 31.1 °F 69% 30.38 in 10.0 mi NE 5.8 mph - N/A   Overcast
7:33 PM 40.3 °F 35.5 °F 31.1 °F 70% 30.39 in 10.0 mi NE 6.9 mph - N/A   Overcast
7:54 PM 40.3 °F 35.5 °F 31.1 °F 70% 30.39 in 10.0 mi ENE 6.9 mph - N/A   Overcast
8:14 PM 40.3 °F 35.5 °F 31.5 °F 71% 30.40 in 10.0 mi NE 6.9 mph - N/A   Overcast
8:33 PM 40.3 °F 37.1 °F 31.5 °F 71% 30.40 in 10.0 mi NE 4.6 mph - N/A   Overcast
8:54 PM 40.3 °F 36.3 °F 31.1 °F 70% 30.40 in 10.0 mi NE 5.8 mph - N/A   Overcast
9:14 PM 39.7 °F 35.6 °F 30.2 °F 69% 30.41 in 10.0 mi NNE 5.8 mph - N/A   Overcast
9:33 PM 39.4 °F 34.5 °F 29.5 °F 68% 30.41 in 10.0 mi NE 6.9 mph - N/A   Overcast
9:54 PM 39.2 °F 35.0 °F 29.1 °F 67% 30.42 in 10.0 mi NE 5.8 mph - N/A   Overcast
10:14 PM 38.7 °F 34.3 °F 28.9 °F 68% 30.42 in 10.0 mi NE 5.8 mph - N/A   Overcast
10:33 PM 38.5 °F 34.1 °F 28.4 °F 67% 30.42 in 10.0 mi NNE 5.8 mph - N/A   Overcast
10:54 PM 38.3 °F 35.9 °F 28.9 °F 69% 30.43 in 10.0 mi NE 3.5 mph - N/A   Overcast
11:14 PM 37.4 °F - 28.4 °F 70% 30.43 in 10.0 mi Calm Calm - N/A   Overcast
11:33 PM 36.9 °F - 28.2 °F 71% 30.43 in 10.0 mi Calm Calm - N/A   Overcast
11:54 PM 36.9 °F 34.3 °F 28.2 °F 71% 30.43 in 10.0 mi NNE 3.5 mph - N/A   Overcast